Location: Newark
(33.6333°S, 78.8500°W)
Time: 11:22:31
(UTC+00:00)

Courier 1B - Pass Details

Date: 22 September 2019
Orbit: 962 x 1209 km, 28.3° (Epoch: 18 October)

Event Time Altitude Azimuth Distance (km) Brightness Sun altitude
Rises 21:31:34 0° 306° (NW) 4,092 12.0 19.8°
Reaches altitude 10° 21:34:40 10° 314° (NW) 3,114 11.3 19.2°
Maximum altitude 21:41:41 38° 18° (NNE) 1,700 8.9 17.8°
Drops below altitude 10° 21:48:24 10° 83° (E) 2,988 9.5 16.4°
Sets 21:51:18 0° 91° (E) 3,909 10.0 15.8°
